Regional Weather Roundup
Issued by NWS Little Rock, AR

Home | Current Version | Previous Version | Text Only | Print | Product List | Glossary Off
Versions: 1 2 3 4 5 6 7 8 9 10 11 12 13 14 15 16 17 18 19 20 21 22 23 24 25 26 27 28 29 30 31 32

000
ASUS44 KLZK 270205
RWRLZK

WEATHER ROUNDUP FOR ARKANSAS
NATIONAL WEATHER SERVICE LITTLE ROCK AR
900 PM CDT MON JUN 26 2017

NOTE: "FAIR" INDICATES FEW OR NO CLOUDS BELOW 12,000 FEET WITH NO
SIGNIFICANT WEATHER AND/OR OBSTRUCTIONS TO VISIBILITY.

ARZ001-003-010-029-270300-
NORTHWEST ARKANSAS

CITY           SKY/WX    TMP DP  RH WIND       PRES   REMARKS
FAYETTEVILLE   CLEAR     69  62  78 CALM      30.08R
FORT SMITH     CLEAR     79  59  50 S6        30.04S
HARRISON       CLOUDY    67  62  84 NE9       30.11R
BENTONVILLE    CLEAR     75  52  43 CALM      30.09S
ROGERS         CLEAR     74  59  59 SE6       30.09R
SILOAM SPGS    CLEAR     79  59  50 CALM      30.07
HIGHFILL       CLEAR     76  57  51 S3        30.08S
SPRINGDALE     CLEAR     77  57  50 SE5       30.09S
$$

ARZ004-005-016-270300-
NORTH CENTRAL ARKANSAS

CITY           SKY/WX    TMP DP  RH WIND       PRES   REMARKS
BATESVILLE     CLOUDY    73  61  64 NE9       30.09R
FLIPPIN        CLOUDY    66  55  68 E6        30.08F
MTN HOME       CLOUDY    65  58  78 E7        30.10F
$$

ARZ040-041-270300-
WEST CENTRAL ARKANSAS

CITY           SKY/WX    TMP DP  RH WIND       PRES   REMARKS
MENA           CLEAR     72  61  68 CALM      30.09S
MOUNT IDA      CLEAR     70  65  84 CALM      30.07R
$$

ARZ009-017-025-026-028-270300-
NORTHEAST ARKANSAS

CITY           SKY/WX    TMP DP  RH WIND       PRES   REMARKS
CORNING        LGT RAIN  66  66 100 NE5       30.12S
JONESBORO      CLOUDY    68  60  75 NE14G22   30.10R
WALNUT RIDGE   CLOUDY    66  57  72 NE7       30.11S
BLYTHEVILLE    CLOUDY    72  58  61 N9        30.10R
$$

ARZ022-023-033-042-044-270300-
CENTRAL ARKANSAS

CITY           SKY/WX    TMP DP  RH WIND       PRES   REMARKS
LITTLE ROCK    CLOUDY    73  65  75 S3        30.08R
N LITTLE ROCK    N/A     75  63  66 CALM      30.07R
CONWAY           N/A     75  64  69 SE6       30.05S
SEARCY         CLEAR     74  67  78 CALM      30.09R
HOT SPRINGS    MOCLDY    75  66  73 E3        30.08R
RUSSELLVILLE   PTCLDY    71  64  78 CALM      30.05S
CLINTON        CLOUDY    73  68  83 CALM      30.07S
$$

ARZ036-270300-
EAST ARKANSAS

CITY           SKY/WX    TMP DP  RH WIND       PRES   REMARKS
WEST MEMPHIS   CLEAR     74  64  71 N3        30.07R
$$

ARZ050-053-066-070-073-270300-
SOUTHWEST ARKANSAS

CITY           SKY/WX    TMP DP  RH WIND       PRES   REMARKS
ARKADELPHIA    FAIR      74  67  78 NE3       30.07R
CAMDEN         PTCLDY    72  66  83 CALM      30.06R
TEXARKANA      PTCLDY    75  66  73 NE3       30.05R
EL DORADO      PTCLDY    73  66  78 CALM      30.06R
DE QUEEN       PTCLDY    72  67  84 CALM      30.04R
$$

ARZ056-057-069-270300-
SOUTHEAST ARKANSAS

CITY           SKY/WX    TMP DP  RH WIND       PRES   REMARKS
PINE BLUFF     PTCLDY    72  66  81 NE5       30.07S
STUTTGART      PTCLDY    77  57  50 SE3       30.08S
MONTICELLO     PTCLDY    74  67  78 CALM      30.07R

$$






USA.gov is the U.S. government's official web portal to all federal, state and local government web resources and services.